Stündliche Wetter Juazeiro do Norte

Heute, 6 März, Samstag

Zeit Temperatur Niederschläge Wind Luftdruck Luftfeuchtigkeit
00:00 +23°C° 0 mm 0 m/S 725 mmHg 78%
01:00 +23°C° 0 mm 0 m/S 725 mmHg 79%
02:00 +23°C° 0 mm 0 m/S 725 mmHg 80%
03:00 +23°C° 0 mm 0 m/S 725 mmHg 81%
04:00 +22°C° 0 mm 0 m/S 725 mmHg 83%
05:00 +22°C° 0 mm 0 m/S 726 mmHg 85%
06:00 +22°C° 0 mm 0 m/S 726 mmHg 87%
07:00 +26°C° 0 mm 1 m/S 726 mmHg 81%
08:00 +28°C° 0 mm 1 m/S 727 mmHg 75%
09:00 +29°C° 0 mm 1 m/S 727 mmHg 69%
10:00 +31°C° 0 mm 2 m/S 727 mmHg 65%
11:00 +32°C° 0 mm 2 m/S 726 mmHg 60%
12:00 +34°C° 0 mm 2 m/S 726 mmHg 55%
13:00 +34°C° 0 mm 2 m/S 725 mmHg 54%
14:00 +34°C° 0 mm 2 m/S 724 mmHg 53%
15:00 +34°C° 0 mm 2 m/S 724 mmHg 52%
16:00 +31°C° 0 mm 1 m/S 724 mmHg 59%
17:00 +30°C° 0 mm 1 m/S 723 mmHg 66%
18:00 +28°C° 0 mm 1 m/S 723 mmHg 74%
19:00 +27°C° 0 mm 1 m/S 724 mmHg 75%
20:00 +27°C° 0 mm 1 m/S 724 mmHg 76%
21:00 +26°C° 0 mm 1 m/S 725 mmHg 77%
22:00 +26°C° 0 mm 1 m/S 725 mmHg 80%
23:00 +25°C° 0 mm 1 m/S 725 mmHg 83%

Morgen, 7 März, Sonntag

Zeit Temperatur Niederschläge Wind Luftdruck Luftfeuchtigkeit
00:00 +25°C° 0 mm 1 m/S 725 mmHg 86%
01:00 +25°C° 0 mm 1 m/S 725 mmHg 88%
02:00 +24°C° 0 mm 1 m/S 725 mmHg 90%
03:00 +24°C° 0 mm 1 m/S 725 mmHg 92%
04:00 +24°C° 0 mm 1 m/S 725 mmHg 94%
05:00 +23°C° 0 mm 1 m/S 726 mmHg 96%
06:00 +21°C° 0 mm 0 m/S 726 mmHg 97%
07:00 +25°C° 0 mm 1 m/S 727 mmHg 87%
08:00 +27°C° 0 mm 1 m/S 727 mmHg 76%
09:00 +29°C° 0 mm 2 m/S 728 mmHg 66%
10:00 +31°C° 0 mm 2 m/S 727 mmHg 58%
11:00 +32°C° 0 mm 2 m/S 727 mmHg 51%
12:00 +35°C° 0 mm 2 m/S 727 mmHg 44%
13:00 +35°C° 0 mm 3 m/S 726 mmHg 43%
14:00 +35°C° 0 mm 3 m/S 725 mmHg 43%
15:00 +35°C° 0 mm 3 m/S 724 mmHg 42%
16:00 +32°C° 0 mm 2 m/S 724 mmHg 51%
17:00 +30°C° 0 mm 2 m/S 724 mmHg 60%
18:00 +28°C° 0 mm 1 m/S 723 mmHg 69%
19:00 +27°C° 0 mm 1 m/S 724 mmHg 72%
20:00 +26°C° 0 mm 1 m/S 724 mmHg 74%
21:00 +26°C° 0 mm 1 m/S 725 mmHg 77%
22:00 +25°C° 0 mm 1 m/S 725 mmHg 78%
23:00 +25°C° 0 mm 1 m/S 725 mmHg 79%

übermorgen, 8 März, Montag

Zeit Temperatur Niederschläge Wind Luftdruck Luftfeuchtigkeit
00:00 +25°C° 0 mm 2 m/S 725 mmHg 81%
01:00 +24°C° 0 mm 1 m/S 725 mmHg 86%
02:00 +24°C° 0 mm 1 m/S 725 mmHg 91%
03:00 +23°C° 0 mm 1 m/S 725 mmHg 96%
04:00 +23°C° 0 mm 1 m/S 725 mmHg 96%
05:00 +23°C° 0 mm 1 m/S 725 mmHg 97%
06:00 +21°C° 0 mm 0 m/S 726 mmHg 97%
07:00 +25°C° 0 mm 1 m/S 726 mmHg 87%
08:00 +27°C° 0 mm 2 m/S 727 mmHg 76%
09:00 +29°C° 0 mm 3 m/S 727 mmHg 66%
10:00 +30°C° 0 mm 3 m/S 727 mmHg 58%
11:00 +33°C° 0 mm 3 m/S 726 mmHg 50%
12:00 +35°C° 0 mm 3 m/S 726 mmHg 42%
13:00 +35°C° 0 mm 3 m/S 725 mmHg 40%
14:00 +35°C° 0 mm 3 m/S 724 mmHg 38%
15:00 +36°C° 0 mm 3 m/S 724 mmHg 36%
16:00 +32°C° 0 mm 2 m/S 723 mmHg 43%
17:00 +30°C° 0 mm 1 m/S 723 mmHg 51%
18:00 +25°C° 0 mm 0 m/S 723 mmHg 58%
19:00 +25°C° 0 mm 0 m/S 723 mmHg 59%
20:00 +26°C° 0 mm 1 m/S 724 mmHg 60%
21:00 +25°C° 0 mm 1 m/S 724 mmHg 61%
22:00 +25°C° 0 mm 1 m/S 724 mmHg 66%
23:00 +24°C° 0 mm 1 m/S 724 mmHg 71%

9 März, Dienstag

Zeit Temperatur Niederschläge Wind Luftdruck Luftfeuchtigkeit
00:00 +24°C° 0 mm 2 m/S 724 mmHg 76%
01:00 +23°C° 0 mm 1 m/S 724 mmHg 81%
02:00 +23°C° 0 mm 1 m/S 724 mmHg 86%
03:00 +22°C° 0 mm 1 m/S 724 mmHg 92%
04:00 +23°C° 0 mm 1 m/S 725 mmHg 92%
05:00 +23°C° 0 mm 1 m/S 725 mmHg 93%
06:00 +21°C° 0 mm 0 m/S 725 mmHg 94%
07:00 +25°C° 0 mm 1 m/S 726 mmHg 83%
08:00 +27°C° 0 mm 2 m/S 726 mmHg 73%
09:00 +29°C° 0 mm 2 m/S 726 mmHg 63%
10:00 +31°C° 0 mm 2 m/S 726 mmHg 56%
11:00 +32°C° 0 mm 2 m/S 726 mmHg 49%
12:00 +35°C° 0 mm 2 m/S 725 mmHg 42%
13:00 +35°C° 0 mm 2 m/S 724 mmHg 40%
14:00 +35°C° 0 mm 2 m/S 723 mmHg 39%
15:00 +36°C° 0 mm 2 m/S 723 mmHg 37%
16:00 +32°C° 0 mm 2 m/S 722 mmHg 45%
17:00 +30°C° 0 mm 1 m/S 722 mmHg 52%
18:00 +26°C° 0 mm 0 m/S 722 mmHg 59%
19:00 +27°C° 0 mm 1 m/S 723 mmHg 59%
20:00 +26°C° 0 mm 1 m/S 723 mmHg 59%
21:00 +26°C° 0 mm 1 m/S 723 mmHg 59%
22:00 +25°C° 0 mm 1 m/S 724 mmHg 65%
23:00 +25°C° 0 mm 1 m/S 724 mmHg 72%

10 März, Mittwoch

Zeit Temperatur Niederschläge Wind Luftdruck Luftfeuchtigkeit
00:00 +24°C° 0 mm 2 m/S 724 mmHg 79%
01:00 +24°C° 0 mm 1 m/S 724 mmHg 84%
02:00 +23°C° 0 mm 1 m/S 724 mmHg 90%
03:00 +23°C° 0 mm 1 m/S 724 mmHg 95%
04:00 +23°C° 0 mm 1 m/S 724 mmHg 96%
05:00 +23°C° 0 mm 1 m/S 725 mmHg 97%
06:00 +21°C° 0 mm 0 m/S 725 mmHg 97%
07:00 +25°C° 0 mm 1 m/S 725 mmHg 85%
08:00 +27°C° 0 mm 1 m/S 726 mmHg 74%
09:00 +29°C° 0 mm 2 m/S 726 mmHg 62%
10:00 +31°C° 0 mm 2 m/S 726 mmHg 56%
11:00 +32°C° 0 mm 2 m/S 725 mmHg 50%
12:00 +35°C° 0 mm 2 m/S 725 mmHg 44%
13:00 +35°C° 0 mm 2 m/S 724 mmHg 43%
14:00 +35°C° 0 mm 2 m/S 723 mmHg 43%
15:00 +35°C° 0 mm 2 m/S 722 mmHg 43%
16:00 +32°C° 0 mm 2 m/S 722 mmHg 50%
17:00 +30°C° 0 mm 1 m/S 722 mmHg 57%
18:00 +28°C° 0 mm 1 m/S 722 mmHg 64%
19:00 +28°C° 0 mm 1 m/S 723 mmHg 65%
20:00 +27°C° 0 mm 1 m/S 723 mmHg 67%
21:00 +26°C° 0 mm 1 m/S 724 mmHg 68%
22:00 +25°C° 0 mm 1 m/S 724 mmHg 75%
23:00 +24°C° 0 mm 1 m/S 724 mmHg 82%

11 März, Donnerstag

Zeit Temperatur Niederschläge Wind Luftdruck Luftfeuchtigkeit
00:00 +24°C° 0 mm 1 m/S 724 mmHg 89%
01:00 +23°C° 0 mm 1 m/S 724 mmHg 92%
02:00 +23°C° 0 mm 1 m/S 724 mmHg 94%
03:00 +21°C° 0 mm 0 m/S 724 mmHg 97%
04:00 +21°C° 0 mm 0 m/S 725 mmHg 97%
05:00 +21°C° 0 mm 0 m/S 725 mmHg 98%
06:00 +21°C° 0 mm 0 m/S 725 mmHg 98%
07:00 +25°C° 0 mm 1 m/S 726 mmHg 86%
08:00 +27°C° 0 mm 2 m/S 726 mmHg 75%
09:00 +29°C° 0 mm 2 m/S 727 mmHg 64%
10:00 +31°C° 0 mm 2 m/S 726 mmHg 56%
11:00 +34°C° 0 mm 2 m/S 726 mmHg 48%
12:00 +35°C° 0 mm 2 m/S 726 mmHg 40%
13:00 +36°C° 0 mm 2 m/S 725 mmHg 38%
14:00 +36°C° 0 mm 2 m/S 724 mmHg 37%
15:00 +36°C° 0 mm 2 m/S 723 mmHg 35%
16:00 +34°C° 0 mm 2 m/S 723 mmHg 41%
17:00 +31°C° 0 mm 1 m/S 723 mmHg 48%
18:00 +27°C° 0 mm 0 m/S 722 mmHg 54%
19:00 +28°C° 0 mm 1 m/S 723 mmHg 57%
20:00 +27°C° 0 mm 1 m/S 723 mmHg 60%
21:00 +26°C° 0 mm 1 m/S 724 mmHg 62%
22:00 +25°C° 0.1 mm 1 m/S 724 mmHg 70%
23:00 +25°C° 0.1 mm 1 m/S 725 mmHg 77%
Mehr zeigen

Wir brauchen deine Erlaubnis

Meteoprog und unser Service Anbieter werden persönliche Daten aufbewahren, so wie Cookies, Geräte Bezeichnung oder ähnliche Technologien von deinem Gerät und Prozess, so wie Persönliche Daten Inhalte und Werbungen, genauso wie social Media und den Verkehr zu analysieren.

  • Aufbewahrung und/oder Zugang zu deiner Geräte Informationen.

    Cookies, Geräte Bezeichnung oder andere Informationen, können aufbewahrt oder Zugang zu deinem Gerät erhalten, für den Grund, der oben angegeben wird.

  • Personalisierte Werbung und Inhalte, Messungen, Einblick in das Publikum und Produkt Entwicklung.

    Werbungen und Inhalte können personalisiert werden, basierend auf ein Profil. Mehr Daten können besser personalisierte Werbungen und Inhalte hinzufügen. Werbung und Inhalte können gezeigt und gemessen werden. Einblicke über das Publikum, welche die Werbung gesehen haben und den Inhalt, können abgeleitet werden. So wie Daten können genutzt werden, um es zu verbessern oder die Benutzer Erfahrung zu verbessern das System und die Software.

Wenn du “Ich stimme zu” klickst, erlaubst du uns, die Cookies zu benutzen die Geräte Bezeichnung, den Web oder ähnliche Technologien zu benutzen. Deine Settings, können in deinem Gerät bei deinem Browser geändert werden.

Für den bestimmten Zweck, berechtigten Interessen beruhen darauf, mehr als auf den Inhalt. Du kannst mehr darüber in unseren Privaten und Cookie Politik lesen.